Regional Weather Roundup
Issued by NWS Wakefield, VA

Home | Current Version | Previous Version | Graphics & Text | Print | Product List | Glossary On
Versions: 1 2 3 4 5 6 7 8 9 10 11 12 13 14 15 16 17 18 19 20 21 22 23 24 25 26 27
000
ASUS41 KAKQ 161616
RWRAKQ

REGIONAL WEATHER ROUNDUP
NATIONAL WEATHER SERVICE WAKEFIELD VA
1200 PM EDT WED AUG 16 2017

Note: "fair" indicates few or no clouds below 12,000 feet with no
significant weather and/or obstructions to visibility. * = Denotes
station may not report precipitation (e.g., rain,snow,etc.),
thunder or fog.

VAZ042-051-052>054-056-161700-
NORTHERN VIRGINIA

CITY           SKY/WX    TMP DP  RH WIND       PRES   REMARKS
WASH NATIONAL  CLOUDY    85  73  67 E3        30.01F
DULLES         PTSUNNY   83  72  69 NW5       30.02F
FORT BELVOIR   SUNNY     85  73  67 CALM      30.00F
QUANTICO       PTSUNNY   82  76  81 S6        30.02F
FREDERICKSBRG* SUNNY     83  74  72 CALM      30.01F
STAFFORD*      SUNNY     83  74  73 CALM      30.05F
WARRENTON      MOSUNNY   87  69  53 CALM      30.02F
CULPEPER*      SUNNY     87  72  61 NW3       30.03F
MANASSAS*      SUNNY     83  73  72 CALM      30.02F
LEESBURG*      PTSUNNY   82  75  78 NW9       30.04R
WINCHESTER     MOSUNNY   81  68  65 NW7       30.04F
FRONT ROYAL*   MOSUNNY   81  72  74 CALM      30.04S
LURAY*         SUNNY     82  72  69 W5        30.05F
$$

VAZ048-049-060>072-079>083-161700-
CENTRAL AND SOUTH CENTRAL VIRGINIA

CITY           SKY/WX    TMP DP  RH WIND       PRES   REMARKS
RICHMOND       MOSUNNY   84  73  69 NE6       30.02F
CHESTERFIELD*    N/A     84  71  65 N6        30.03F
PETERSBURG*    PTSUNNY   81  71  69 CALM      30.03F
HANOVER        SUNNY     84  71  65 CALM      30.03F
TAPPAHANNOCK*  SUNNY     85  70  59 N3        30.02F
QUINTON*       FAIR      81  75  82 N6        30.01F
CHARLOTTSVILLE SUNNY     88  68  51 N5        30.04S
GORDONSVILLE*  SUNNY     85  72  63 CALM      30.03S
ORANGE*        SUNNY     86  68  54 CALM      30.03S
LOUISA*        SUNNY     84  70  61 E5        30.03S
BUMPASS*       FAIR      84  71  65 CALM      30.03S
FARMVILLE*     MOSUNNY   89  65  44 E5        30.03S
CREWE*         FAIR      81  72  74 CALM      30.04S
FORT PICKETT*  FAIR     N/A N/A N/A N3        30.05S
CHASE CITY*    PTSUNNY   83  72  69 CALM      30.05S
CLARKSVILLE*   PTSUNNY   81  73  78 CALM      30.05S
SOUTH HILL*    MOSUNNY   82  73  75 CALM      30.10S
LAWRENCEVILLE* PTSUNNY   81  72  73 N3        30.04S
EMPORIA*       MOSUNNY   81  72  74 NW5       30.04S
$$

VAZ088>098-161700-
SOUTHEAST VIRGINIA

CITY           SKY/WX    TMP DP  RH WIND       PRES   REMARKS
NORFOLK        MOSUNNY   83  74  74 N13       30.00S
VIRGINIA BEACH PTSUNNY   84  73  69 N9        29.99S
NORFOLK NAVAL  MOSUNNY   85  74  69 NE9       30.02S
WEST POINT*    MOSUNNY   83  70  64 N3        30.03S
SALUDA*        FAIR      82  75  81 NW6       30.01F
NEWPORT NEWS   MOSUNNY   84  72  67 VRB5      30.01S
LANGLEY AFB    MOSUNNY   83  73  71 N7        30.00S
FORT EUSTIS    SUNNY     85  73  67 NW6       29.99S
WILLIAMSBURG*  SUNNY     88  75  66 CALM      30.02S HX  97
HR EXEC AP*    PTSUNNY   84  73  70 N6        29.98S
FRANKLIN*      MOSUNNY   82  72  70 N5        30.02R
US460-WAKEFLD  MOSUNNY   83  73  72 CALM      30.02S
$$

VAZ020-022-025-037-045-161700-
WEST CENTRAL AND SOUTHWEST VIRGINIA

CITY           SKY/WX    TMP DP  RH WIND       PRES   REMARKS
STAUNTON*      SUNNY     80  69  67 CALM      30.10S
WAYNESBORO*    SUNNY     81  70  68 W3        30.09F
HOT SPRINGS VA SUNNY     72  61  68 NW8       30.23S
LYNCHBURG      SUNNY     84  68  58 VRB3      30.07S
DANVILLE       PTSUNNY   86  73  65 VRB3      30.05S
SOUTH BOSTON*  FAIR      81  74  79 CALM      30.05F
MARTINSVILLE   SUNNY     85  69  58 NE5       30.10S
ROANOKE        MOSUNNY   85  68  56 CALM      30.10S
BLACKSBURG     SUNNY     80  69  70 SW3       30.17S
DUBLIN*        MOSUNNY   82  64  54 CALM      30.16S
MARION*        MOSUNNY   80  65  59 CALM      30.19S
HILLSVILLE*    PTSUNNY   77  63  62 N3        30.17S
RICHLANDS*     FAIR      78  66  66 CALM      30.19R
WISE*          CLOUDY    77  66  69 CALM      30.18F
ABINGDON*      PTSUNNY   79  73  82 NW6       30.16S
$$

MDZ021>025-VAZ099-100-161700-
SOUTHERN MARYLAND AND THE DELMARVA PENINSULA

CITY           SKY/WX    TMP DP  RH WIND       PRES   REMARKS
PATUXENT RIVER MOSUNNY   83  74  74 VRB6      30.01S
BAY BRIDGE APT MOSUNNY   81  73  78 CALM      30.00F HAZE
LEONARDTOWN    SUNNY     81  70  69 CALM      30.02F
DOVER          PTSUNNY   82  82 100 NW5       29.98S HX  96
GEORGETOWN     CLOUDY    83  69  62 CALM      30.00F
EASTON         NOT AVBL
CAMBRIDGE      SUNNY     82  73  74 VRB3      30.01S
SALISBURY      SUNNY     83  71  67 NW6       30.00S
OCEAN CITY     SUNNY     82  73  74 N5        30.00S
WALLOPS ISLAND PTSUNNY   81  74  79 VRB3      30.01S
ACCOMACK*      PTSUNNY   80  74  81 CALM      30.01S
$$

NCZ012>017-030>032-161700-
NORTH CENTRAL AND EASTERN NORTH CAROLINA

CITY           SKY/WX    TMP DP  RH WIND       PRES   REMARKS
ROANOKE RAPIDS   N/A     82  73  74 N7        30.03S
RALEIGH        MOSUNNY   86  72  62 N7        30.05R
ELIZABETH CITY MOSUNNY   86  77  74 VRB5      30.00S HX  97
AHOSKIE*         N/A     82  74  75 N6        30.02R
EDENTON*       CLOUDY    85  75  71 E5        30.01S
CURRITUCK*     MOSUNNY   83  55  38 NE7       30.01S
KILL DEVIL HLS MOSUNNY   80  74  81 CALM      29.99S
MANTEO         PTSUNNY   80  75  82 NE6       30.00S
CAPE HATTERAS  CLOUDY    84  78  82 VRB5      29.99S HX  95
TARBORO*       NOT AVBL
GOLDSBORO      PTSUNNY   81  79  94 E7        30.02S
WASHINGTON     MOSUNNY   82  75  79 NE6       30.01F
GREENVILLE     MOSUNNY   84  75  74 NE6       30.03S
NEW BERN       CLOUDY    82  77  84 N6        30.02S
WILMINGTON     MOSUNNY   88  75  65 NW3       30.01R HX  97
$$

VAZ048-161700-
ELSEWHERE

CITY           SKY/WX    TMP DP  RH WIND       PRES   REMARKS
HARRISBURG PA  MOSUNNY   80  70  71 NW9       30.00F
BALTIMORE      PTSUNNY   84  73  69 W5        30.00S
ANNAPOLIS      MOSUNNY   82  78  88 SE7       30.00F
ANDREWS AFB    MOSUNNY   83  71  66 N3        30.01S
PHILADELPHIA   CLOUDY    83  67  58 W3        29.99F
HENDERSON NC   SUNNY     80  68  67 NE3       30.06R
GREENSBORO     PTSUNNY   84  73  69 CALM      30.06F
ROCKY MOUNT    CLOUDY    79  75  87 N5        30.04R
$$

VAZ100-161700-
MARINE

STATION/POSITION TIME  TEMP    WIND        PRES    WAVE   SWELL
                       AIR SEA DIR/SP/G            HT/PER HT/PER
                 (UTC) (F)     (DEG/KT/KT) (MB)    (FT/S) (FT/S)
BRANDYWINE LGT   1536   75     320/  4/  6 1016.2S
CAPE MAY NJ      1536   77 77  320/  8/ 10 1015.3R
LEWES DE         1536   76 76   10/  4/  5 1015.6F
15NM E FENWICK I 1550   75 77  320/ 10/ 12 1016.1R   4/11   3/11
OCEAN-CITY-INLET 1536   78 79   20/  4/  6 1016.3S
WACHAPREAGUE VA  1536   80 81   40/  2/  5 1016.0S
THOMAS POINT MD  1600   76 79  150/  3/  4   N/A
GOOSES REEF MD   1600   79 80  110/  2/  4 1016.8    1
COVE POINT MD    1536   77      20/  3/  5 1017.0R
SOLOMONS ISLAND  1536   80 81  330/  6/  7   N/A
BISHOPS HEAD MD  1536   79 80  260/  6/  6 1016.5R
PINEY POINT MD   1548          310/  6/  7   N/A
POTOMAC MD       1600   78 81  290/  6/  6 1015.5    0
CAMBRIDGE MD     1536   84 81              1017.0R
LEWISETTA VA     1536   81 81   30/  4/  6 1016.3S
RAPPAHANNOCK LGT 1548          360/  9/ 10 1016.9R
STINGRAY PT      1600   78 80   50/  8/  8 1016.5    1/ 2
YORK RVR RNG VA  1536   79     350/  6/  7 1016.6R
YORKTOWN VA      1536   79 80  310/  6/  8 1016.0R
JAMESTOWN VA     1600      82  350/  6/ 10   N/A     0
DOMINION TERM VA 1536   79     300/  8/  9 1016.0S
KIPTOPEKE VA     1548      80  330/ 13/ 15   N/A
CHES BAY BRIDGE  1548   78 80   20/ 13/ 15 1015.9F
CAPE HENRY VA    1548   78     340/ 12/ 13   N/A
WILLOUBY STN VA  1542   79      40/  9/ 10 1016.1S
S CRANEY ISL VA  1536   80     360/  8/ 10 1015.9S
CAPE HENRY BUOY  1530      78                N/A     3/11   2/11
1ST LANDING BUOY 1600   79 79              1015.9    2/ 4
64NM E OF VA BCH 1550   77 79   20/  6/  8 1016.1F   3/ 9   3/ 9
DUCK PIER NC     1548   78 78   10/  7/  9 1015.6R
44100 DUCK FRF   1505      79                N/A     3/10   2/11
44056 DUCK FRF   1600      79                N/A     3/ 9   2/11
OREGON INLET NC  1542   79 82   20/  8/ 10 1015.8R
HATTERAS NC      1548   82 83   30/ 10/ 12 1015.4F
DIAMOND SHLS NC  1550   80 83   20/  8/  8 1015.2S   3/ 9   3/ 9
CAPE LOOKOUT NC  1600   83      70/  4/  5 1015.1F
$$




USA.gov is the U.S. government's official web portal to all federal, state and local government web resources and services.